sat.trackr.live / text

‹ back to catalog

ONEWEB-0063

NORAD 45448 · 2020-020AA

PAYLOAD ACTIVE UNKNOWN

§ Identity

Operator
Country
UK
Launch date
2020-03-21
Launch site
TYMSC
Launch vehicle
Mass (kg)
RCS (m²)

Purposes: comms

External: N2YO · Heavens-Above · Gunter

§ Orbital elements

Epoch: 2026-09-11T20:19:49.586880Z

Period
109.81 min
Inclination
87.8971°
Eccentricity
0.0001710
Mean motion
13.11415067 rev/d
Perigee alt
1,216.4 km
Apogee alt
1,219.0 km
Semi-major
7,595.8 km
B*
5.1708e-4
RAAN
3.8437°
Arg perigee
110.9076°
Mean anomaly
249.2235°
Rev number
31,405

§ Raw data

ONEWEB-00631 45448U 20020AA  26254.84710170  .00000196  00000+0  51708-3 0  99952 45448  87.8971   3.8437 0001710 110.9076 249.2235 13.11415067314054

JSON: /api/v1/satellites/45448 · /tle

For live sub-satellite position, see the globe view (requires WebGL).

§ Visibility from observer

Set your observer location to see the next 7 days of passes ≥ 10°. The values pass through the URL so the page stays shareable.

No JS? Fill the form by hand. The geolocation button needs JavaScript.